Flag for U.S.A. Weather past 2 weeks in Charleston, South Carolina, U.S.A.

Now
93 °F

Broken clouds.


Feels Like: 101 °F
Forecast: 77 / 90 °F
Wind: 7 mph from North

Location: Charleston Air Force Base Reporting Station

Current Time: Sep 2, 2014 at 1:54:18 PM

Latest Report: Sep 2, 2014 at 12:56 PM


Visibility: 10 mi

Pressure: 30.07 "Hg

Humidity: 50%

Dew point: 72 °F

Location of CharlestonLocation

Historic Weather in Charleston — Graph

°F

Charleston temperature yesterday

Maximum temperature yesterday: 92 °F (at 12:56 PM)
Minimum temperature yesterday: 77 °F (at 5:56 AM)
Average temperature yesterday: 84 °F

Past Weeks' High & Low Weather Summary

 TemperatureHumidityPressure
High99 °F (Aug 22, 3:56 PM)94% (Aug 30, 5:56 AM)30.19 "Hg (Aug 30, 5:56 AM)
Low65 °F (Aug 27, 6:56 AM)33% (Aug 28, 3:56 PM)29.83 "Hg (Aug 23, 4:56 PM)
Average83 °F69%30.01 "Hg
* Reported Aug 18 12:56 PM — Sep 2 12:56 PM, Charleston, Weather by CustomWeather, © 2014

Note: Actual official high and low records may vary slightly from our data, if they occured in-between our weather recording intervals... More about our weather records

Advertising

Charleston weather history for previous 24 hours

 ConditionsComfort  
Time TempWeatherWind HumidityBarometerVisibility
12:56 PM
Sep 2
93 °FBroken clouds.7 mph50%30.07 "Hg10 mi
11:56 AM92 °FScattered clouds.7 mph56%30.08 "Hg10 mi
10:56 AM90 °FScattered clouds.3 mph59%30.09 "Hg10 mi
9:56 AM87 °FScattered clouds.5 mph65%30.09 "Hg10 mi
8:56 AM85 °FScattered clouds.5 mph75%30.09 "Hg10 mi
7:56 AM82 °FScattered clouds.No wind88%30.09 "Hg7 mi
6:56 AM79 °FFog.No wind90%30.07 "Hg7 mi
5:56 AM78 °FClear.No wind90%30.06 "Hg7 mi
4:56 AM79 °FClear.No wind90%30.05 "Hg9 mi
3:56 AM80 °FClear.No wind87%30.06 "Hg9 mi
2:56 AM79 °FClear.3 mph90%30.07 "Hg8 mi
1:56 AM82 °FPassing clouds.No wind82%30.09 "Hg10 mi
12:56 AM82 °FPassing clouds.No wind82%30.09 "Hg10 mi
11:56 PM
Sep 1
81 °FPassing clouds.No wind85%30.09 "Hg10 mi
10:56 PM82 °FPassing clouds.6 mph82%30.09 "Hg10 mi
9:56 PM82 °FPassing clouds.6 mph82%30.09 "Hg10 mi
8:56 PM83 °FPassing clouds.5 mph79%30.09 "Hg10 mi
7:56 PM84 °FBroken clouds.7 mph80%30.06 "Hg10 mi
6:56 PM85 °FLight rain. Broken clouds.8 mph75%30.05 "Hg10 mi
5:56 PM88 °FPartly sunny.10 mph63%30.06 "Hg10 mi
4:56 PM92 °FThunderstorms. Scattered clouds.12 mph60%30.05 "Hg10 mi
3:56 PM92 °FScattered clouds.12 mph58%30.06 "Hg10 mi
2:56 PM92 °FScattered clouds.9 mph60%30.08 "Hg10 mi
1:56 PM91 °FBroken clouds.7 mph56%30.09 "Hg10 mi
Weather by CustomWeather, © 2014

See weather overviewHow to use our weather pages